[TLELIST] Archives

 

[list_settings.list_name] Current TLEs

December 4th 2011 PST

HST 1 20580U 90037B 11335.28238065 .00003275 00000-0 23204-3 0 8980 2 20580 028.4708 004.6347 0003460 106.4077 253.7047 15.01910365984794 ISS (ZARYA) 1 25544U 98067A 11337.39105324 .00026104 00000-0 33475-3 0 5480 2 25544 051.6429 029.3877 0028697 122.0740 054.8202 15.58481159747324 CXO 1 25867U 99040B 11338.20833333 -.00000671 00000-0 00000+0 0 6745 2 25867 070.7387 019.5592 8724807 277.5185 355.5688 00.37807468 8410 ____________________________________________________________________ These 2-Line ...Continue Reading

[list_settings.list_name] Current TLEs

December 3rd 2011 PST

HST 1 20580U 90037B 11335.28238065 .00003275 00000-0 23204-3 0 8980 2 20580 028.4708 004.6347 0003460 106.4077 253.7047 15.01910365984794 ISS (ZARYA) 1 25544U 98067A 11336.43108796 .00104046 00000-0 13032-2 0 5411 2 25544 051.6439 034.2040 0028679 119.0645 068.3946 15.58457834747173 CXO 1 25867U 99040B 11338.20833333 -.00000671 00000-0 00000+0 0 6745 2 25867 070.7387 019.5592 8724807 277.5185 355.5688 00.37807468 8410 ____________________________________________________________________ These 2-Line ...Continue Reading

[list_settings.list_name] Current TLEs

December 2nd 2011 PST

HST 1 20580U 90037B 11335.28238065 .00003275 00000-0 23204-3 0 8980 2 20580 028.4708 004.6347 0003460 106.4077 253.7047 15.01910365984794 ISS (ZARYA) 1 25544U 98067A 11335.45960446 .00246158 00000-0 30274-2 0 5362 2 25544 051.6425 039.0678 0028225 113.8021 019.7257 15.58436037747026 CXO 1 25867U 99040B 11335.58333333 -.00000523 00000-0 00000+0 0 6733 2 25867 070.7150 019.7637 8725163 277.4919 358.2684 00.37805870 8400 ____________________________________________________________________ These 2-Line ...Continue Reading

[list_settings.list_name] Current TLEs

December 1st 2011 PST

HST 1 20580U 90037B 11334.28561260 .00002755 00000-0 19325-3 0 8975 2 20580 028.4706 011.1537 0003365 094.4571 265.6466 15.01902394984649 ISS (ZARYA) 1 25544U 98067A 11334.49872446 .00002399 00000-0 36383-4 0 5295 2 25544 051.6440 043.9004 0029933 108.5392 029.7339 15.58961447746871 CXO 1 25867U 99040B 11335.58333333 -.00000523 00000-0 00000+0 0 6733 2 25867 070.7150 019.7637 8725163 277.4919 358.2684 00.37805870 8400 ____________________________________________________________________ These 2-Line ...Continue Reading

[list_settings.list_name] Current TLEs

November 30th 2011 PST

HST 1 20580U 90037B 11333.28883287 .00002816 00000-0 19783-3 0 8965 2 20580 028.4704 017.6680 0003486 079.8277 280.2344 15.01897025984496 ISS (ZARYA) 1 25544U 98067A 11333.40174103 .00002388 00000-0 36383-4 0 5243 2 25544 051.6414 049.4084 0030730 103.9168 353.8932 15.58839798746703 CXO 1 25867U 99040B 11332.91666667 -.00000504 00000-0 00000+0 0 6724 2 25867 070.6952 019.9432 8724368 277.4687 355.3182 00.37804397 8394 ____________________________________________________________________ These 2-Line ...Continue Reading

[list_settings.list_name] Current TLEs

November 29th 2011 PST

HST 1 20580U 90037B 11331.29528001 .00003398 00000-0 24132-3 0 8953 2 20580 028.4706 030.7027 0003373 062.5805 297.5054 15.01889630984199 ISS (ZARYA) 1 25544U 98067A 11332.45434028 .00024220 00000-0 30643-3 0 5186 2 25544 051.6431 054.1581 0030850 101.0822 076.5603 15.58807001746555 CXO 1 25867U 99040B 11332.91666667 -.00000504 00000-0 00000+0 0 6724 2 25867 070.6952 019.9432 8724368 277.4687 355.3182 00.37804397 8394 ____________________________________________________________________ These 2-Line ...Continue Reading

[list_settings.list_name] Current TLEs

November 28th 2011 PST

HST 1 20580U 90037B 11331.29528001 .00003398 00000-0 24132-3 0 8953 2 20580 028.4706 030.7027 0003373 062.5805 297.5054 15.01889630984199 ISS (ZARYA) 1 25544U 98067A 11331.41356600 .00023972 00000-0 30394-3 0 5131 2 25544 051.6424 059.3831 0030913 097.2250 356.1055 15.58754553746396 CXO 1 25867U 99040B 11332.91666667 -.00000504 00000-0 00000+0 0 6724 2 25867 070.6952 019.9432 8724368 277.4687 355.3182 00.37804397 8394 ____________________________________________________________________ These 2-Line ...Continue Reading

[list_settings.list_name] Current TLEs

November 27th 2011 PST

HST 1 20580U 90037B 11330.29849794 .00003476 00000-0 24722-3 0 8948 2 20580 028.4707 037.2200 0003253 052.9678 307.1201 15.01883931984047 ISS (ZARYA) 1 25544U 98067A 11330.45262193 .00012457 00000-0 16186-3 0 5079 2 25544 051.6440 064.2096 0030672 093.2181 004.2374 15.58692953746247 CXO 1 25867U 99040B 11330.29166667 -.00000597 00000-0 00000+0 0 6719 2 25867 070.6755 020.1253 8723300 277.4384 358.0672 00.37807705 8388 ____________________________________________________________________ These 2-Line ...Continue Reading

[list_settings.list_name] Current TLEs

November 26th 2011 PST

HST 1 20580U 90037B 11328.63717918 .00003484 00000-0 24790-3 0 8938 2 20580 028.4709 048.0757 0003427 034.0326 326.0183 15.01873175983799 ISS (ZARYA) 1 25544U 98067A 11329.41727170 .00024349 00000-0 30978-3 0 5005 2 25544 051.6429 069.4065 0030834 089.9969 313.9857 15.58657083746086 CXO 1 25867U 99040B 11330.29166667 -.00000597 00000-0 00000+0 0 6719 2 25867 070.6755 020.1253 8723300 277.4384 358.0672 00.37807705 8388 ____________________________________________________________________ These 2-Line ...Continue Reading

[list_settings.list_name] Current TLEs

November 25th 2011 PST

HST 1 20580U 90037B 11326.31132196 .00003790 00000-0 27084-3 0 8928 2 20580 028.4700 063.2810 0003036 006.5468 353.5081 15.01859302983446 ISS (ZARYA) 1 25544U 98067A 11328.40286919 .00033453 00000-0 42374-3 0 4934 2 25544 051.6438 074.5032 0030780 086.4708 021.8283 15.58589332745921 CXO 1 25867U 99040B 11330.29166667 -.00000597 00000-0 00000+0 0 6719 2 25867 070.6755 020.1253 8723300 277.4384 358.0672 00.37807705 8388 ____________________________________________________________________ These 2-Line ...Continue Reading
  • This mailing list is a public mailing list - anyone may join or leave, at any time.
  • This mailing list is announce-only.

International Space Station (ISS) / Hubble Space Telescope (HST) / Chandra X-Ray Observatory Orbital Data via EMAIL

Privacy Policy:

Private list